Regional Weather Roundup
Issued by NWS Charleston, SC

Current Version | Previous Version | Graphics & Text | Print | Product List | Glossary On
Versions: 1 2 3 4 5 6 7 8 9 10 11 12 13 14 15 16 17 18 19 20 21 22 23 24 25 26 27 28 29 30 31 32 33 34 35 36 37 38 39 40 41 42 43 44 45 46 47 48 49 50
169 ASUS42 KCHS 132013 RWRCHS REGIONAL WEATHER ROUNDUP NATIONAL WEATHER SERVICE CHARLESTON SC 300 PM EST SAT FEB 13 2016 NOTE: "FAIR" INDICATES FEW OR NO CLOUDS BELOW 12,000 FEET WITH NO SIGNIFICANT WEATHER AND/OR OBSTRUCTIONS TO VISIBILITY. NOT ALL STATIONS ARE QUALITY CONTROLLED BY THE NATIONAL WEATHER SERVICE. USE DATA WITH CAUTION...ESPECIALLY DEWPOINT OBSERVATIONS. SCZ027-030-031-034>040-042>050-132100- ...SOUTHEAST SOUTH CAROLINA... CITY SKY/WX TMP DP RH WIND PRES REMARKS N CHARLESTON MOSUNNY 50 18 28 NW10 30.24F WATERFRONT PRK N/A 47 27 45 N9 30.10F MOUNT PLEASANT FAIR 48 19 32 NW7G17 30.25S JOHNS ISLAND FAIR 52 21 30 W13 30.24S PINOPOLIS N/A 45 19 36 NW12 30.18S MONCKS CORNER FAIR 45 12 26 N8 30.26S SUMMERVILLE FAIR 50 23 34 N8G17 30.26S BEAUFORT MCAS SUNNY 52 24 33 N9 30.25F BEAUFORT ARPT FAIR 52 27 37 NW8 30.25S HILTON HEAD IS SUNNY 52 28 40 N10 30.26F WALTERBORO CLEAR 52 18 25 N3 30.26S ALLENDALE FAIR 50 19 29 CALM 30.25S ...SOUTHERN MIDLANDS AND PEE DEE... CITY SKY/WX TMP DP RH WIND PRES REMARKS GEORGETOWN FAIR 45 18 33 NW7 30.26S KINGSTREE FAIR 43 12 28 N7 30.27R ORANGEBURG SUNNY 49 12 22 NW10 30.26S BARNWELL FAIR 52 21 30 NW8 30.26F AIKEN FAIR 45 18 33 N6 30.28F MANNING FAIR 46 14 27 N9 30.26S COLUMBIA SUNNY 48 2 15 NW15G21 30.27S SUMTER SUNNY 46 13 26 NW10 30.24S FLORENCE SUNNY 43 11 27 NW12G23 30.27S MYRTLE BEACH SUNNY 45 12 26 N14G23 30.27S N MYRTLE BEACH SUNNY 44 15 31 NW9G20 30.25S $$ GAZ063-065-086>088-099>101-113>116-118-119-134>141-150-132100- ...SOUTHEAST GEORGIA... CITY SKY/WX TMP DP RH WIND PRES REMARKS SAVANNAH ARPT SUNNY 53 22 29 NW14G21 30.26S HUNTER AAF SUNNY 54 23 30 NW10 30.23S FORT STEWART SUNNY 54 20 26 W9G16 30.23F STATESBORO SUNNY 55 6 14 NW8 30.26F SYLVANIA CLEAR 52 25 36 N8 30.26F CLAXTON FAIR 54 26 33 W13 30.26F ...CSRA...CENTRAL AND FAR SOUTHEAST GEORGIA... CITY SKY/WX TMP DP RH WIND PRES REMARKS THOMSON SUNNY 49 15 25 W5 30.31S AUGUSTA-BUSH SUNNY 51 16 24 N9 30.26F AUGUSTA-DANIEL SUNNY 50 15 24 VRB7 30.26F SWAINSBORO FAIR 52 14 22 N9G16 30.26F VIDALIA SUNNY 54 18 24 N9G17 30.26F EASTMAN FAIR 53 11 18 N9 30.30F HAZLEHURST FAIR 54 13 19 NW13 30.26F ALMA SUNNY 55 16 21 NW10 30.27F WAYCROSS SUNNY 58 21 23 NW10G18 30.27S JESUP FAIR 55 27 33 W10 30.26S BAXLEY FAIR 54 16 22 NW6 30.26F BRUNSWICK SUNNY 57 25 28 NW3 30.26S SAINT SIMONS SUNNY 52 33 48 E10 30.26R $$ SCZ027-028-034-036>038-045-046-048>050-GAZ119-141-132100- ...LAKE AND SUPPLEMENTAL COASTAL OBSERVATIONS... STATION/POSITION TIME TEMP WIND PRES WAVE SWELL AIR SEA DIR/SP/G HT/PER HT/PER/DIR (UTC) (F) (DEG/KT/KT) (MB) (FT/S) (FT/S/D) WINYAH BAY NOT AVBL LAKE MURRAY 1900 44 340/ 4/ 17 1024.7F ACE BASIN NERRS NOT AVBL FORT PULASKI 1900 48 51 290/ 8/ 12 1024.7F SAPELO ISLAND 1900 55 350/ 5 1024.0F $$ ANZ835-935-AMZ111-154-330-350-352-354-370-450-454-472-132100- ...C-MAN AND BUOY OBSERVATIONS... STATION/POSITION TIME TEMP WIND PRES WAVE SWELL AIR SEA DIR/SP/G HT/PER HT/PER/DIR (UTC) (F) (DEG/KT/KT) (MB) (FT/S) (FT/S/D) BUOY 41004 1950 44 67 350/ 8/ 14 1024.2S 4/ 5 3/ 5 BUOY 41008 1950 46 53 30/ 6/ 10 1025.0F 2/ 6 2/ 70/ 6 FOLLY BEACH CMAN 2000 47 10/ 9/ 13 1024.3F CAPERS NEARSHORE 1908 45 50/ 4/ 8 1024.0F FRIPP NEARSHORE 1900 47 340/ 8/ 8 1023.6F STATION/POSITION TIME TEMP WIND PRES WAVE SWELL AIR SEA DIR/SP/G HT/PER HT/PER/DIR (UTC) (F) (DEG/KT/KT) (MB) (FT/S) (FT/S/D) 5E ST. MARYS GA 1921 56 N/A 3/ 5 FRYING PAN BUOY 1900 40 61 340/ 14/ 17 1024.2F BUOY 41025 1950 35 72 340/ 17/ 23 1023.2R 5/ 8 3/ 60/ 8 CAPE LOOKOUT NC NOT AVBL BUOY 41002 1950 53 68 340/ 21/ 27 N/A 10/ 8 BUOY 41010 1920 63 72 1021.1F ST AUGUSTINE FL 2000 51 58 30/ 12/ 15 1024.8F $$

USA.gov is the U.S. government's official web portal to all federal, state and local government web resources and services.